Vorticity
nan nan nan nan nan nan nan nan nan nan nan nan nan nan nan nan nan nan nan nan nan nan nan nan nan nan nan nan nan nan nan nan nan nan nan nan nan nan nan nan nan nan nan
nan 10 10 9 10 8 7 11 8 6 11 13 4 11 7 8 8 11 8 8 7 8 9 8 8 11 10 9 8 9 10 9 9 7 5 9 14 8 10 7 6 10 nan
nan 9 10 10 8 8 11 8 9 9 8 7 8 7 9 9 9 9 9 9 8 8 10 10 8 7 7 7 8 10 10 10 9 10 9 9 10 9 10 9 10 7 nan
nan 10 10 11 10 11 10 8 8 9 8 8 8 10 9 8 9 9 10 7 8 10 10 10 10 10 8 8 8 8 8 10 10 10 10 10 10 9 10 9 10 10 nan
nan 10 11 10 10 10 10 12 11 11 9 8 8 9 7 8 9 10 9 9 10 8 8 10 9 7 10 11 7 7 7 7 7 8 9 9 10 11 9 9 9 11 nan
nan 9 10 10 9 8 9 11 11 9 8 11 10 8 7 9 11 14 9 6 8 9 10 8 8 9 15 15 11 8 7 6 7 6 6 6 7 9 10 9 8 8 nan
nan 8 8 8 10 9 9 9 10 10 9 9 10 10 8 9 16 15 9 8 9 9 9 8 8 8 14 16 18 14 11 13 9 6 10 8 7 6 6 10 11 9 nan
nan 8 8 10 9 9 9 9 9 9 10 9 10 10 8 10 11 11 13 9 8 9 9 10 12 9 11 9 9 12 13 13 14 13 10 9 7 7 8 10 9 9 nan
nan 10 12 11 10 9 9 9 10 9 9 10 11 11 9 11 9 10 7 8 9 10 11 12 17 15 10 12 11 9 9 9 7 7 13 13 13 15 10 8 10 9 nan
nan 13 12 11 11 10 10 10 9 10 10 11 11 11 10 11 9 7 8 10 12 13 12 6 11 18 6 7 12 10 10 10 7 10 10 10 15 21 19 10 8 9 nan
nan 18 17 13 13 11 11 10 10 10 9 10 10 12 13 11 11 9 7 8 12 13 10 10 7 6 6 7 9 7 7 9 11 11 12 12 12 13 16 15 13 11 nan
nan 10 13 15 14 13 11 11 11 10 10 9 11 9 13 12 11 10 8 8 9 11 9 13 8 1 5 10 9 7 9 11 13 11 9 10 12 14 13 9 13 14 nan
nan 10 10 12 14 13 13 12 12 11 10 9 10 11 8 8 12 13 6 6 7 7 9 11 8 8 7 14 12 10 15 14 10 11 12 12 12 9 10 13 14 13 nan
nan 10 12 11 14 17 19 17 16 18 12 10 10 9 7 9 8 9 10 9 9 10 12 10 10 10 10 13 12 14 13 12 12 11 12 13 14 15 13 12 12 12 nan
nan 11 10 13 13 12 13 16 15 15 16 12 14 14 18 10 15 15 14 14 15 12 12 12 12 11 11 12 10 10 11 10 10 10 11 11 12 13 13 13 13 14 nan
nan 11 10 13 12 9 8 1 14 21 5 8 15 16 7 18 27 14 12 13 13 11 9 10 12 8 9 9 10 12 11 10 11 11 10 10 10 11 10 13 13 13 nan
nan 9 11 11 12 12 9 9 4 5 10 16 15 15 16 16 8 9 7 6 6 7 9 11 12 9 10 9 10 10 11 12 11 11 10 10 10 9 11 14 11 11 nan
nan 11 11 10 11 11 15 13 11 10 9 4 10 17 17 13 11 10 5 2 4 6 9 12 12 11 10 9 9 9 9 11 12 10 11 11 11 9 11 11 12 11 nan
nan 12 11 12 9 11 12 11 10 9 13 11 8 8 10 11 9 8 7 7 9 8 10 14 12 11 11 11 9 9 9 9 8 10 12 11 12 10 12 11 10 10 nan
nan 12 5 10 15 14 10 11 7 11 13 9 8 10 9 5 7 6 9 9 9 9 12 14 11 12 11 10 10 11 11 13 13 11 10 10 9 9 12 11 10 10 nan
nan 18 15 10 8 10 14 11 12 12 9 9 11 18 13 5 9 9 9 9 8 10 14 11 11 10 9 10 10 12 13 11 10 13 15 14 13 13 10 9 10 9 nan
nan 9 19 18 13 13 13 12 10 10 10 12 13 21 10 2 9 10 10 9 10 11 12 11 11 10 11 10 9 11 14 13 8 10 11 12 12 12 10 14 14 14 nan
nan 12 14 10 10 15 16 11 11 12 10 9 14 14 8 10 10 10 11 13 11 11 11 11 9 13 16 12 10 11 11 9 9 11 11 11 11 9 11 10 11 11 nan
nan 14 11 9 14 16 12 5 12 15 12 15 14 11 12 9 8 8 11 14 13 13 13 13 12 14 15 14 14 13 11 10 12 8 12 13 9 7 10 13 13 10 nan
nan 15 11 13 10 12 14 13 13 13 12 13 15 12 12 10 8 12 12 16 18 11 11 16 17 12 10 11 13 10 8 12 15 12 11 11 12 15 14 11 11 10 nan
nan nan nan nan nan nan nan nan nan nan nan nan nan nan nan nan nan nan nan nan nan nan nan nan nan nan nan nan nan nan nan nan nan nan nan nan nan nan nan nan nan nan nan
CAPE
3526 3360 2945 2869 2884 2965 2682 2176 2891 2735 1314 1996 917 1377 2456 2205 2641 2893 2967 2602 1941 232 1693 2436 2974 2995 2519 2415 2618 2221 2000 2173 1825 1659 1898 305 782 1127 1272 1796 1609 1964 472
3450 3468 3052 3036 2715 3004 2744 2803 2664 2728 2606 2031 2040 2448 2753 2422 2772 2947 2742 1530 2218 1772 2049 2900 2520 1989 3076 2742 1976 2272 1496 2186 1811 945 1600 1552 1777 1270 615 685 1319 2039 2082
3273 3324 3344 3056 2977 3113 2786 3210 2802 2627 2932 2846 3254 3423 3268 3471 2046 2701 2660 2725 1990 2021 2292 2524 2662 2894 2575 1838 2457 1904 2127 2563 2450 2099 1489 1763 2243 2236 1550 1386 1938 1618 1529
3195 3318 3550 3440 3443 3217 2869 2965 2752 2660 2591 2881 3486 3290 3202 2841 2572 2221 3071 3023 2319 2426 3065 3066 3080 2907 2936 2865 2700 2748 2008 2277 2278 1902 1674 1864 1983 2149 2133 1959 1728 1417 1127
3948 4322 4534 4072 3768 4068 3366 3050 2621 2587 2702 2745 3202 3438 3104 2689 1995 2230 2945 3451 3512 2987 3110 3051 2870 2595 2089 1717 2645 2630 2035 1672 1651 1694 1715 1807 1684 1452 1514 1609 1413 1323 1350
3845 4091 4723 4746 4261 4051 2864 2955 2960 2063 1920 2535 2951 3145 3040 2624 1970 1318 2479 3058 3716 3676 3584 3486 3547 2773 2596 1838 873 871 1512 1958 1576 1565 1223 845 1506 1423 1269 1470 1197 722 1001
4390 4530 4534 4069 4523 4522 4298 3777 3644 2966 2202 2611 2611 3008 3093 2934 2087 904 793 2412 2657 2983 3585 3589 2649 2061 2049 2493 2080 1280 894 419 187 1186 1391 1471 1450 1449 1043 1356 1327 1092 918
4731 4605 4658 4892 4868 4895 4795 4115 3970 3482 3055 2925 2787 3136 3443 3399 544 269 587 2465 3060 3246 2660 2750 2764 2951 821 315 610 1182 1670 1948 1916 964 918 1125 1323 1327 1560 1843 1652 1664 1457
4459 4488 4765 4960 5000 4928 4737 4615 4271 3925 3582 3252 3192 3560 3619 2029 2 294 871 2592 2927 2944 3084 2923 2599 1984 0 0 27 112 36 2 0 0 0 0 0 203 652 1012 1119 1103 1142
4057 4286 4644 4422 4673 4803 5021 4840 4628 4425 4269 4031 3965 4060 3737 3100 0 0 0 1853 2626 2581 2867 2520 0 0 0 0 0 0 0 0 0 0 0 0 0 577 361 272 1082 902 941
3780 4577 4509 4244 4499 4853 5152 5016 4670 4437 3964 4095 3895 3987 3942 1901 0 0 0 246 1347 1536 661 195 0 0 0 0 0 0 0 0 0 0 0 0 0 0 136 803 1159 1008 1066
3288 3436 4117 4241 4142 3987 4384 4265 4596 4578 3851 4221 3934 4236 4298 1176 0 0 0 0 0 69 88 197 0 0 0 0 0 0 0 0 0 0 0 0 0 0 11 242 1007 1341 1073
2775 2999 3245 3655 3935 3748 3388 4113 4095 3973 4175 3938 4415 3967 3512 1283 0 0 0 0 0 0 11 0 0 0 0 0 0 0 0 0 0 11 0 0 30 81 159 221 649 1111 1410
2497 2567 2736 3453 3751 3436 3190 3011 3414 3354 3782 3861 3880 3905 2993 1950 844 0 0 0 0 0 0 3 0 0 0 0 0 5 14 20 12 15 28 69 113 155 205 182 785 1266 1253
1787 2078 2297 2046 3373 2292 1 3 21 2 1 620 1744 2446 2349 1586 1010 0 0 0 18 0 0 28 79 28 0 0 0 4 12 6 9 4 3 9 27 91 186 426 448 516 969
920 1190 1420 1419 2611 2608 1375 5 0 1 768 0 0 47 39 0 0 0 0 0 0 0 0 11 18 3 0 0 6 7 10 10 8 5 9 7 10 22 17 124 200 427 438
607 839 1440 967 1590 2367 1906 1239 0 1 2 1 0 0 0 3 1 0 0 0 1 0 0 1 28 4 0 1 3 3 3 12 17 7 7 11 5 0 9 32 12 27 67
469 166 520 1312 974 1226 1383 1353 1529 309 34 0 0 0 2 4 0 1 0 0 0 0 0 0 8 0 7 2 4 0 0 5 13 16 20 20 14 11 26 40 21 22 9
266 257 713 1174 1115 680 1231 1181 825 992 364 136 0 0 0 1 1 1 1 0 0 0 0 3 18 0 6 6 4 0 0 0 0 11 18 19 16 24 24 18 11 2 6
148 32 34 746 1026 949 805 940 649 871 444 122 0 0 0 0 0 0 0 0 0 0 5 44 45 12 5 0 5 60 102 18 38 52 27 22 29 10 13 1 0 0 0
108 141 164 573 738 668 666 566 727 262 349 306 108 0 0 0 0 0 0 0 0 0 114 56 136 76 0 0 3 11 27 32 2 17 28 78 110 78 52 37 14 1 0
156 189 129 719 726 616 717 1023 780 383 346 394 208 0 0 0 0 0 0 0 0 0 154 190 64 15 17 9 0 0 13 19 3 18 36 58 64 7 17 35 43 80 42
159 179 122 519 645 372 852 1094 669 673 429 235 119 0 0 0 0 0 0 0 10 28 81 77 42 47 22 33 60 39 29 31 57 99 118 107 93 103 116 111 77 31 29
158 435 614 723 875 445 874 1087 1152 461 482 240 103 0 0 0 0 1 11 130 68 84 61 74 52 124 68 24 0 0 0 0 0 7 8 38 45 87 136 120 88 25 37
237 443 940 785 481 475 1153 1257 1116 602 273 227 34 2 1 2 46 57 58 187 55 48 139 174 100 0 0 0 0 0 0 0 0 0 0 0 7 45 59 77 102 80 83
697 636 820 771 759 1228 1249 1029 1127 999 425 360 220 100 77 124 193 87 55 158 92 3 0 0 0 0 0 0 0 0 0 0 0 0 0 0 7 1 0 2 0 0 8